• In Österreich
  • Länderverzeichnis
  • Für 7 Tage
  • Wassertemperatur
  • Satellitenkarten
  • Wetterkarte
  • News
  • Widgets
  • user-avatar
    Anmelden

    Stündliche Wetter Enkamp

    Heute, 22 Mai, Dienstag

    Zeit Temperatur Niederschläge Wind Luftdruck Luftfeuchtigkeit
    00:00 +7°C° 0,3 mm 1 m/S 621 mmHg 91%
    01:00 +7°C° 0,5 mm 1 m/S 621 mmHg 91%
    02:00 +6°C° 0,5 mm 1 m/S 621 mmHg 91%
    03:00 +6°C° 0,5 mm 1 m/S 621 mmHg 91%
    04:00 +7°C° 0,2 mm 1 m/S 621 mmHg 89%
    05:00 +7°C° 0,2 mm 1 m/S 622 mmHg 88%
    06:00 +8°C° 0,2 mm 1 m/S 622 mmHg 86%
    07:00 +9°C° 0,1 mm 1 m/S 623 mmHg 80%
    08:00 +11°C° 0,1 mm 1 m/S 624 mmHg 73%
    09:00 +12°C° 0,1 mm 1 m/S 625 mmHg 66%
    10:00 +13°C° 0,8 mm 1 m/S 625 mmHg 66%
    11:00 +13°C° 0,8 mm 1 m/S 625 mmHg 66%
    12:00 +14°C° 0,8 mm 1 m/S 625 mmHg 66%
    13:00 +13°C° 1,3 mm 1 m/S 625 mmHg 68%
    14:00 +13°C° 1,3 mm 1 m/S 624 mmHg 71%
    15:00 +13°C° 1,3 mm 1 m/S 624 mmHg 73%
    16:00 +12°C° 0,7 mm 1 m/S 624 mmHg 76%
    17:00 +12°C° 0,7 mm 1 m/S 624 mmHg 80%
    18:00 +11°C° 0,7 mm 1 m/S 624 mmHg 84%
    19:00 +10°C° 0,2 mm 1 m/S 624 mmHg 86%
    20:00 +9°C° 0,2 mm 1 m/S 624 mmHg 88%
    21:00 +8°C° 0,2 mm 1 m/S 624 mmHg 91%
    22:00 +8°C° 0 mm 1 m/S 624 mmHg 91%
    23:00 +7°C° 0 mm 1 m/S 624 mmHg 90%

    Morgen, 23 Mai, Mittwoch

    Zeit Temperatur Niederschläge Wind Luftdruck Luftfeuchtigkeit
    00:00 +7°C° 0 mm 1 m/S 624 mmHg 90%
    01:00 +7°C° 0 mm 1 m/S 624 mmHg 90%
    02:00 +7°C° 0 mm 1 m/S 624 mmHg 90%
    03:00 +7°C° 0 mm 1 m/S 624 mmHg 90%
    04:00 +7°C° 0 mm 1 m/S 624 mmHg 88%
    05:00 +8°C° 0 mm 1 m/S 625 mmHg 87%
    06:00 +8°C° 0 mm 0 m/S 625 mmHg 85%
    07:00 +10°C° 0 mm 1 m/S 626 mmHg 77%
    08:00 +12°C° 0 mm 1 m/S 627 mmHg 70%
    09:00 +14°C° 0 mm 1 m/S 628 mmHg 62%
    10:00 +15°C° 0,1 mm 2 m/S 628 mmHg 60%
    11:00 +15°C° 0,1 mm 2 m/S 628 mmHg 58%
    12:00 +16°C° 0,1 mm 2 m/S 628 mmHg 56%
    13:00 +16°C° 0,3 mm 2 m/S 628 mmHg 57%
    14:00 +16°C° 0,3 mm 2 m/S 628 mmHg 58%
    15:00 +16°C° 0,3 mm 2 m/S 628 mmHg 59%
    16:00 +15°C° 0,7 mm 2 m/S 627 mmHg 65%
    17:00 +14°C° 0,7 mm 2 m/S 627 mmHg 72%
    18:00 +14°C° 0,7 mm 1 m/S 626 mmHg 78%
    19:00 +12°C° 0,2 mm 1 m/S 626 mmHg 82%
    20:00 +11°C° 0,2 mm 1 m/S 626 mmHg 86%
    21:00 +9°C° 0,2 mm 1 m/S 626 mmHg 90%
    22:00 +9°C° 0 mm 1 m/S 626 mmHg 90%
    23:00 +9°C° 0 mm 1 m/S 625 mmHg 90%

    übermorgen, 24 Mai, Donnerstag

    Zeit Temperatur Niederschläge Wind Luftdruck Luftfeuchtigkeit
    00:00 +8°C° 0 mm 1 m/S 625 mmHg 90%
    01:00 +8°C° 0 mm 1 m/S 625 mmHg 89%
    02:00 +8°C° 0 mm 1 m/S 625 mmHg 88%
    03:00 +8°C° 0 mm 1 m/S 625 mmHg 87%
    04:00 +9°C° 0 mm 1 m/S 625 mmHg 85%
    05:00 +10°C° 0 mm 1 m/S 625 mmHg 82%
    06:00 +10°C° 0 mm 1 m/S 626 mmHg 80%
    07:00 +12°C° 0 mm 1 m/S 627 mmHg 71%
    08:00 +14°C° 0 mm 2 m/S 628 mmHg 63%
    09:00 +16°C° 0 mm 2 m/S 628 mmHg 55%
    10:00 +17°C° 0 mm 3 m/S 629 mmHg 52%
    11:00 +18°C° 0 mm 3 m/S 629 mmHg 48%
    12:00 +19°C° 0 mm 3 m/S 629 mmHg 45%
    13:00 +19°C° 0 mm 3 m/S 629 mmHg 46%
    14:00 +19°C° 0 mm 3 m/S 628 mmHg 46%
    15:00 +19°C° 0 mm 3 m/S 628 mmHg 46%
    16:00 +18°C° 0 mm 3 m/S 628 mmHg 52%
    17:00 +17°C° 0 mm 3 m/S 627 mmHg 57%
    18:00 +16°C° 0 mm 2 m/S 626 mmHg 63%
    19:00 +14°C° 0 mm 2 m/S 626 mmHg 66%
    20:00 +12°C° 0 mm 2 m/S 626 mmHg 70%
    21:00 +9°C° 0 mm 2 m/S 625 mmHg 73%
    22:00 +9°C° 0 mm 2 m/S 625 mmHg 71%
    23:00 +9°C° 0 mm 2 m/S 625 mmHg 69%

    25 Mai, Freitag

    Zeit Temperatur Niederschläge Wind Luftdruck Luftfeuchtigkeit
    00:00 +8°C° 0 mm 2 m/S 625 mmHg 67%
    01:00 +8°C° 0 mm 2 m/S 625 mmHg 65%
    02:00 +8°C° 0 mm 2 m/S 624 mmHg 64%
    03:00 +8°C° 0 mm 2 m/S 624 mmHg 62%
    04:00 +9°C° 0 mm 2 m/S 625 mmHg 61%
    05:00 +10°C° 0 mm 2 m/S 625 mmHg 61%
    06:00 +12°C° 0 mm 2 m/S 625 mmHg 60%
    07:00 +14°C° 0,2 mm 2 m/S 626 mmHg 56%
    08:00 +14°C° 0,2 mm 3 m/S 627 mmHg 52%
    09:00 +17°C° 0,2 mm 3 m/S 627 mmHg 48%
    10:00 +18°C° 0,1 mm 4 m/S 628 mmHg 46%
    11:00 +20°C° 0,1 mm 4 m/S 628 mmHg 43%
    12:00 +21°C° 0,1 mm 4 m/S 628 mmHg 40%
    13:00 +21°C° 0 mm 4 m/S 628 mmHg 40%
    14:00 +21°C° 0 mm 4 m/S 628 mmHg 40%
    15:00 +21°C° 0 mm 4 m/S 627 mmHg 40%
    16:00 +19°C° 0 mm 4 m/S 627 mmHg 46%
    17:00 +18°C° 0 mm 3 m/S 626 mmHg 52%
    18:00 +17°C° 0 mm 3 m/S 626 mmHg 58%
    19:00 +14°C° 0 mm 3 m/S 625 mmHg 61%
    20:00 +13°C° 0 mm 2 m/S 625 mmHg 64%
    21:00 +10°C° 0 mm 2 m/S 624 mmHg 67%
    22:00 +10°C° 0 mm 2 m/S 624 mmHg 65%
    23:00 +10°C° 0 mm 2 m/S 624 mmHg 64%

    26 Mai, Samstag

    Zeit Temperatur Niederschläge Wind Luftdruck Luftfeuchtigkeit
    00:00 +9°C° 0 mm 2 m/S 624 mmHg 62%
    01:00 +9°C° 0 mm 2 m/S 624 mmHg 64%
    02:00 +9°C° 0 mm 2 m/S 624 mmHg 65%
    03:00 +9°C° 0 mm 2 m/S 624 mmHg 67%
    04:00 +10°C° 0,1 mm 2 m/S 624 mmHg 68%
    05:00 +10°C° 0,1 mm 2 m/S 624 mmHg 70%
    06:00 +12°C° 0,1 mm 2 m/S 625 mmHg 71%
    07:00 +13°C° 0,2 mm 3 m/S 626 mmHg 66%
    08:00 +16°C° 0,2 mm 3 m/S 626 mmHg 60%
    09:00 +18°C° 0,2 mm 4 m/S 627 mmHg 55%
    10:00 +19°C° 0,1 mm 4 m/S 628 mmHg 50%
    11:00 +20°C° 0,1 mm 5 m/S 628 mmHg 46%
    12:00 +21°C° 0,1 mm 5 m/S 628 mmHg 42%
    13:00 +21°C° 0 mm 5 m/S 628 mmHg 41%
    14:00 +21°C° 0 mm 5 m/S 628 mmHg 41%
    15:00 +21°C° 0 mm 5 m/S 628 mmHg 41%
    16:00 +20°C° 0,1 mm 4 m/S 627 mmHg 47%
    17:00 +18°C° 0,1 mm 4 m/S 627 mmHg 53%
    18:00 +17°C° 0,1 mm 3 m/S 626 mmHg 58%
    19:00 +14°C° 0 mm 3 m/S 626 mmHg 60%
    20:00 +13°C° 0 mm 2 m/S 625 mmHg 62%
    21:00 +12°C° 0 mm 2 m/S 625 mmHg 64%
    22:00 +10°C° 0 mm 2 m/S 625 mmHg 62%
    23:00 +10°C° 0 mm 2 m/S 625 mmHg 59%

    27 Mai, Sonntag

    Zeit Temperatur Niederschläge Wind Luftdruck Luftfeuchtigkeit
    00:00 +10°C° 0 mm 2 m/S 625 mmHg 57%
    01:00 +9°C° 0,1 mm 2 m/S 624 mmHg 60%
    02:00 +9°C° 0,1 mm 2 m/S 624 mmHg 63%
    03:00 +9°C° 0,1 mm 2 m/S 624 mmHg 67%
    04:00 +10°C° 0,5 mm 2 m/S 625 mmHg 70%
    05:00 +12°C° 0,5 mm 2 m/S 625 mmHg 72%
    06:00 +13°C° 0,5 mm 2 m/S 625 mmHg 75%
    07:00 +14°C° 0,5 mm 2 m/S 626 mmHg 70%
    08:00 +14°C° 0,5 mm 3 m/S 627 mmHg 66%
    09:00 +15°C° 0,5 mm 4 m/S 628 mmHg 61%
    10:00 +17°C° 0,2 mm 4 m/S 628 mmHg 56%
    11:00 +19°C° 0,2 mm 4 m/S 628 mmHg 51%
    12:00 +20°C° 0,2 mm 4 m/S 628 mmHg 46%
    13:00 +20°C° 0,2 mm 4 m/S 628 mmHg 47%
    14:00 +20°C° 0,2 mm 4 m/S 628 mmHg 47%
    15:00 +20°C° 0,2 mm 4 m/S 628 mmHg 48%
    16:00 +19°C° 0,3 mm 4 m/S 627 mmHg 55%
    17:00 +17°C° 0,3 mm 3 m/S 627 mmHg 61%
    18:00 +16°C° 0,3 mm 3 m/S 626 mmHg 68%
    19:00 +14°C° 0,1 mm 3 m/S 626 mmHg 71%
    20:00 +14°C° 0,1 mm 2 m/S 625 mmHg 74%
    21:00 +12°C° 0,1 mm 2 m/S 625 mmHg 76%
    22:00 +12°C° 0,4 mm 2 m/S 625 mmHg 76%
    23:00 +12°C° 0,4 mm 2 m/S 625 mmHg 76%
    Mehr zeigen